Temperature
14 14 13 13 13 13 13 13 13 13 13 13 13 13 13 12 11 10 10 9 9 9 9 9 9 8 8 8 8 9 9 9 10 10 10 10 10 10 10 11 11 11 11
14 14 13 13 13 13 13 12 12 12 12 13 13 13 12 12 11 10 9 9 9 9 8 8 8 8 8 8 8 8 8 8 9 9 9 9 9 9 9 9 10 10 10
15 14 13 13 13 13 12 12 12 12 12 12 12 12 12 11 10 10 9 9 9 8 8 8 8 8 8 8 8 8 7 8 8 8 8 8 8 8 8 8 8 8 9
14 14 13 13 13 12 12 12 12 12 12 12 12 12 12 11 10 9 8 8 8 8 8 8 8 8 8 8 8 7 7 7 7 7 6 6 6 6 6 6 6 7 7
14 14 13 13 12 12 12 12 12 12 12 12 12 12 11 11 10 9 8 8 8 8 8 8 8 8 8 7 7 7 7 7 6 6 5 5 5 5 5 5 5 5 5
14 13 13 13 12 12 12 11 11 11 12 12 12 12 11 10 9 9 8 8 7 7 7 7 7 7 7 7 7 6 6 6 5 5 4 4 3 3 3 3 4 4 4
14 13 13 13 12 12 12 11 11 11 11 12 12 11 10 10 9 8 8 8 7 7 7 7 7 7 6 6 6 6 6 5 5 4 3 3 2 2 2 2 2 3 3
14 14 13 13 12 12 12 11 11 11 11 12 12 11 10 10 9 9 8 8 7 7 6 6 6 6 6 6 5 5 5 5 4 3 2 2 1 1 1 1 1 2 2
15 15 14 14 13 12 12 12 11 11 12 12 12 12 12 11 9 9 9 8 7 7 6 6 6 5 5 5 5 5 4 4 4 3 1 1 1 1 1 1 1 1 1
15 15 15 14 13 13 12 12 11 11 12 12 12 11 11 11 11 10 9 8 7 7 6 6 5 5 5 5 4 4 4 3 3 2 1 0 -0 -0 0 0 0 0 0
15 15 15 15 14 13 12 12 11 11 12 12 12 11 11 10 10 10 9 9 8 7 6 5 5 4 4 4 4 3 3 3 2 2 0 -0 -1 -1 -1 -1 -1 -1 -1
15 15 15 15 14 14 13 12 11 11 11 11 11 11 11 10 10 10 9 9 8 7 6 5 4 4 4 4 3 2 2 2 1 1 0 -1 -2 -2 -2 -2 -2 -2 -2
15 15 15 15 14 14 13 12 11 11 11 11 11 10 10 10 9 9 8 8 7 6 6 5 4 4 3 3 2 1 1 1 1 1 -0 -2 -2 -3 -3 -3 -3 -3 -3
15 15 15 15 14 14 12 11 11 10 10 10 10 9 9 9 8 8 8 7 5 5 5 5 4 3 2 1 -0 -0 -0 -0 -0 -0 -1 -2 -2 -2 -3 -4 -4 -4 -4
14 14 14 14 14 13 12 11 10 9 9 9 8 8 8 7 7 7 6 5 4 3 3 3 3 2 1 -0 -1 -1 -2 -2 -2 -2 -2 -2 -2 -3 -3 -4 -4 -4 -5
13 13 14 14 13 12 11 10 9 8 8 8 7 7 6 6 5 5 5 3 2 1 1 1 1 -0 -0 -1 -1 -2 -3 -3 -3 -3 -3 -3 -3 -3 -4 -4 -5 -5 -5
12 12 12 13 12 11 10 9 8 7 7 6 6 5 5 4 4 4 3 2 1 0 -0 -0 -1 -1 -1 -2 -2 -3 -3 -3 -3 -3 -3 -3 -4 -4 -4 -5 -5 -5 -5
10 10 10 10 10 10 9 8 7 6 6 5 4 4 3 3 2 2 1 0 -0 -1 -2 -2 -2 -3 -3 -3 -4 -4 -5 -5 -4 -4 -3 -4 -4 -4 -4 -5 -5 -6 -6
9 9 9 9 9 8 7 6 5 5 4 4 3 2 2 1 1 -0 -1 -1 -2 -2 -3 -4 -4 -4 -5 -5 -5 -6 -6 -5 -4 -4 -4 -4 -4 -4 -5 -5 -6 -6 -6
8 8 8 8 7 6 5 5 4 3 3 3 2 2 1 0 -1 -2 -2 -2 -3 -3 -4 -5 -5 -6 -6 -6 -7 -7 -7 -6 -5 -4 -4 -5 -5 -5 -5 -5 -5 -5 -5
7 7 6 6 5 4 4 3 3 3 2 2 1 1 0 -1 -2 -2 -2 -3 -4 -5 -5 -6 -7 -7 -7 -7 -7 -8 -8 -7 -6 -5 -5 -5 -5 -4 -4 -5 -5 -5 -5
5 5 4 3 3 2 2 2 2 2 2 1 1 -0 -1 -2 -2 -2 -3 -5 -6 -6 -7 -7 -7 -8 -8 -8 -8 -8 -8 -8 -9 -7 -7 -6 -5 -5 -5 -5 -5 -5 -5
3 2 2 1 1 1 1 2 2 2 1 0 -0 -2 -2 -2 -3 -4 -5 -5 -6 -6 -7 -8 -8 -8 -8 -8 -9 -9 -9 -9 -9 -8 -8 -6 -5 -5 -5 -5 -5 -5 -5
1 0 0 0 1 1 1 1 1 1 -0 -1 -2 -2 -2 -3 -4 -5 -6 -7 -7 -7 -7 -8 -8 -8 -9 -9 -9 -9 -9 -9 -8 -7 -7 -7 -5 -5 -6 -5 -5 -5 -5
0 -0 0 0 1 0 0 0 -0 -1 -2 -2 -3 -4 -4 -5 -5 -6 -8 -8 -8 -8 -8 -8 -8 -8 -9 -8 -9 -9 -8 -8 -8 -7 -7 -8 -6 -6 -6 -5 -5 -5 -5
0 0 0 0 0 -0 -1 -1 -2 -2 -3 -4 -4 -5 -6 -6 -7 -8 -9 -9 -9 -9 -9 -8 -8 -8 -8 -8 -8 -8 -8 -9 -9 -9 -7 -8 -8 -8 -8 -6 -6 -6 -6
Wind_Speed
6 7 7 8 8 8 8 8 8 8 7 7 7 8 8 8 10 11 12 13 13 11 11 11 11 10 10 10 9 9 9 9 10 10 11 12 13 13 13 13 13 13 12
10 8 7 7 8 9 9 9 8 7 6 6 6 6 7 8 9 11 11 12 12 11 10 11 11 10 10 9 9 9 8 8 9 10 10 11 12 12 13 13 13 12 12
13 10 7 6 9 12 12 11 9 7 5 5 5 5 6 7 8 9 10 11 11 11 11 11 11 10 10 9 9 8 7 7 8 8 9 10 11 12 12 13 13 12 12
16 12 8 7 12 13 11 6 4 5 4 4 4 3 3 5 6 7 8 9 9 10 10 10 10 9 9 9 8 7 6 6 6 7 7 8 10 11 12 13 13 13 12
18 14 9 9 14 10 7 6 3 3 4 4 4 4 3 3 4 5 6 6 7 8 9 9 8 8 7 7 7 7 6 5 5 6 7 8 9 10 12 13 14 14 13
18 15 9 11 13 8 6 5 5 3 4 5 5 5 4 2 3 3 4 5 6 7 7 7 7 6 6 6 6 6 5 5 5 6 7 8 9 11 12 13 15 15 15
18 15 9 10 10 10 10 9 6 5 3 3 4 4 4 3 3 2 3 4 5 6 6 6 5 4 5 5 6 6 6 6 7 8 9 10 11 13 14 15 16 16 16
18 16 13 12 11 9 10 9 7 5 3 3 4 4 2 1 1 2 1 3 3 5 5 5 5 4 4 5 6 6 6 7 9 10 12 13 14 15 16 17 17 18 18
17 15 14 12 13 12 12 11 9 9 6 3 2 4 5 6 3 1 0 2 3 2 2 3 4 5 6 7 7 7 7 9 10 12 14 15 16 18 19 19 19 19 19
15 16 15 14 14 12 13 13 10 6 7 5 3 1 2 4 5 3 1 2 2 3 2 1 3 5 7 8 8 8 9 10 12 14 16 18 19 20 21 22 21 20 19
12 13 14 12 14 12 13 13 11 8 6 6 6 4 3 2 2 4 4 3 2 3 3 3 4 5 6 7 8 9 10 12 14 17 19 20 22 22 22 22 21 21 21
9 11 12 12 12 11 13 13 12 11 7 7 6 5 5 4 4 4 4 3 3 2 2 2 5 5 5 5 6 10 12 14 17 19 21 22 22 22 22 22 22 22 22
10 14 14 13 12 11 11 10 10 10 9 10 8 4 4 4 4 4 4 3 2 2 2 2 4 5 3 3 7 12 13 16 19 20 22 22 21 21 21 22 23 23 24
14 14 14 13 12 12 12 11 9 8 7 8 8 7 5 4 4 4 4 4 2 2 3 4 1 5 3 2 8 12 12 16 20 21 21 21 21 21 22 22 23 24 24
8 11 12 13 12 12 13 13 9 9 9 8 8 7 5 3 3 3 4 4 5 4 4 3 3 3 5 4 9 10 10 17 20 20 21 22 22 22 23 24 24 24 24
9 12 13 13 13 13 13 11 11 10 10 7 7 8 5 3 3 3 3 3 3 5 4 4 5 4 5 6 10 12 15 17 19 20 21 22 23 23 24 24 24 25 25
10 12 12 13 13 13 13 12 11 12 11 9 7 7 5 4 3 3 3 2 3 4 5 4 3 3 3 5 10 14 14 15 16 20 23 23 23 23 24 24 25 25 25
9 11 11 11 12 12 12 13 13 11 11 9 7 6 4 3 3 3 3 3 4 4 5 6 3 3 6 6 6 7 12 14 15 21 23 23 23 24 23 23 24 24 25
11 11 11 11 11 12 12 12 13 11 10 8 6 5 3 3 3 2 3 4 4 4 5 5 5 4 5 5 5 6 8 11 15 18 21 22 22 22 22 24 25 27 27
12 12 11 12 12 12 13 14 13 12 10 9 7 5 4 2 2 4 4 5 5 5 5 5 5 5 5 6 5 6 8 6 8 14 18 19 19 21 24 27 28 28 27
13 13 14 14 13 12 12 14 13 12 10 8 6 4 2 1 5 6 5 6 6 5 5 5 5 4 5 5 5 5 9 8 8 9 7 7 11 13 19 24 25 26 27
14 15 15 15 14 12 19 19 14 11 8 6 4 3 1 2 3 5 8 9 7 6 5 5 5 7 7 6 6 8 9 10 7 3 5 10 8 12 11 16 23 27 28
15 14 14 15 15 17 20 19 16 10 8 6 4 2 2 2 3 3 6 9 10 14 13 8 7 8 8 7 8 9 9 10 12 7 10 14 9 13 11 19 26 28 30
13 13 14 14 13 14 17 16 14 9 7 5 4 2 0 3 5 6 6 6 6 7 9 7 7 9 9 9 9 10 10 9 9 9 7 9 10 11 13 13 25 29 30
12 12 11 11 11 11 14 13 10 6 5 4 2 0 2 4 9 11 6 4 5 6 11 16 18 17 19 20 18 8 6 7 11 9 5 5 5 7 10 12 16 22 24
11 10 10 9 9 7 9 10 9 4 4 2 1 1 5 7 10 11 5 4 6 7 7 8 9 11 12 15 17 7 5 7 8 7 4 4 5 5 7 6 7 9 14
Wind_Direction
169 167 161 153 147 144 138 129 119 108 98 94 99 109 110 105 98 91 88 92 93 92 88 82 77 73 69 65 61 57 49 42 36 32 30 28 24 20 17 15 12 8 2
175 173 170 161 154 152 146 139 130 118 105 102 95 106 118 118 110 102 96 93 94 94 92 85 76 67 60 54 51 49 46 41 36 31 28 25 21 17 13 10 6 3 359
181 179 176 169 161 153 141 129 118 110 104 98 88 101 121 127 120 112 105 99 93 92 93 87 76 65 58 49 41 36 36 36 32 28 24 20 16 11 6 3 359 354 350
185 180 177 171 162 153 144 133 124 103 99 104 99 85 110 128 126 120 112 106 101 95 93 89 74 63 56 47 35 27 26 27 24 20 15 10 7 2 358 353 349 345 340
187 181 178 168 159 152 148 144 125 129 127 123 112 86 84 112 130 125 114 108 106 101 92 85 70 60 51 41 28 18 15 12 9 4 358 353 351 350 347 343 339 334 330
186 179 170 164 160 154 154 146 130 108 118 130 108 80 63 77 103 118 123 116 112 108 97 83 66 48 37 27 13 0 352 345 343 341 336 331 330 332 332 331 328 325 321
183 177 169 166 168 169 167 151 129 122 125 149 112 83 47 52 82 88 129 128 119 115 102 83 64 42 19 6 357 345 336 328 326 323 320 317 318 319 319 319 318 316 313
183 182 173 175 175 165 159 161 146 136 139 172 142 128 125 350 7 54 119 144 135 125 106 84 63 49 33 20 5 357 342 330 321 316 312 311 311 311 311 311 310 309 306
186 185 179 174 175 172 176 176 165 151 151 175 190 152 155 197 208 294 79 147 149 133 115 96 79 75 72 60 40 19 3 342 324 316 313 311 310 309 308 307 306 304 302
187 186 180 177 178 179 179 180 175 162 146 154 155 114 123 143 151 181 255 226 201 189 183 147 133 107 87 66 44 19 360 342 328 321 316 311 308 306 305 304 302 301 301
188 185 181 181 182 182 179 176 173 167 156 156 157 150 127 82 110 148 189 218 239 225 214 197 175 145 103 66 38 8 351 337 326 318 311 307 304 302 302 302 303 302 300
188 188 184 185 183 182 180 177 174 172 163 154 156 156 154 157 173 160 162 182 216 253 247 214 185 170 133 62 23 354 343 331 321 313 308 304 303 302 303 303 302 299 296
193 194 189 187 185 180 174 167 168 169 162 157 157 153 145 143 141 141 137 147 191 288 301 246 195 183 154 41 1 343 337 325 317 311 306 304 304 304 303 300 297 296 295
201 191 185 183 178 170 168 162 159 156 151 147 145 136 133 130 129 135 139 135 155 277 286 264 222 202 198 342 339 333 325 318 313 308 306 305 304 302 299 297 296 294 293
186 177 176 170 167 165 162 158 154 148 143 136 133 128 123 117 114 119 122 137 158 207 253 256 251 222 235 293 315 316 309 312 309 308 305 302 300 298 296 295 293 292 291
170 166 168 164 160 159 158 151 144 140 134 127 126 124 114 113 122 121 128 143 168 183 226 243 239 243 260 285 300 310 305 308 309 305 301 299 298 296 294 293 292 291 289
160 164 165 161 159 158 155 147 141 138 131 124 120 124 127 131 142 139 130 159 189 184 224 252 248 253 261 271 288 295 297 292 288 299 300 299 297 296 295 294 292 290 287
151 152 151 153 153 151 148 141 135 128 124 123 118 124 135 142 152 147 165 196 212 210 217 248 250 250 253 263 266 276 291 294 291 297 299 299 298 298 296 294 292 290 289
139 140 144 145 144 139 132 125 119 113 109 108 114 125 131 140 170 181 201 216 229 231 218 236 253 243 255 262 271 273 276 279 287 295 299 299 297 296 294 295 295 293 290
131 130 128 126 124 121 116 111 107 103 99 94 92 91 89 123 221 225 227 227 231 238 234 240 255 256 257 257 257 275 291 277 287 294 292 290 290 293 294 293 292 290 288
115 114 113 112 110 109 109 108 106 105 102 98 88 76 59 285 251 235 229 228 225 235 243 249 262 268 268 268 270 276 297 297 286 277 274 270 278 281 284 286 289 288 286
106 108 110 110 106 106 110 108 107 102 100 96 84 59 351 297 297 291 280 273 247 232 231 237 254 268 275 270 275 286 295 301 299 264 277 288 280 283 281 278 283 286 287
103 105 106 105 105 110 110 106 104 103 101 99 97 81 36 5 2 317 301 296 294 292 286 279 280 278 279 277 277 281 280 281 286 287 293 290 279 280 279 280 285 287 287
102 103 102 102 103 107 107 104 102 102 105 108 110 114 338 311 302 289 263 264 268 276 283 283 263 265 267 269 264 278 287 290 281 278 271 280 284 279 281 275 281 283 285
99 99 100 102 103 106 107 109 111 111 106 107 106 110 290 281 301 305 300 279 278 274 290 296 296 297 302 305 305 303 298 299 297 292 256 259 278 283 284 278 273 278 282
97 96 92 91 96 103 120 126 127 112 111 105 72 304 314 311 308 311 308 297 295 286 282 295 303 304 298 295 299 292 274 280 288 290 250 249 277 301 298 268 255 266 276
Height
1539 1541 1543 1545 1546 1547 1549 1550 1550 1551 1551 1551 1550 1550 1549 1549 1548 1549 1549 1549 1549 1549 1549 1548 1548 1548 1548 1547 1547 1546 1546 1545 1545 1544 1543 1542 1542 1541 1540 1539 1539 1539 1538
1536 1538 1540 1542 1544 1545 1546 1548 1549 1549 1549 1549 1549 1548 1548 1547 1547 1548 1548 1548 1548 1548 1548 1547 1547 1547 1547 1546 1546 1545 1544 1543 1543 1542 1541 1540 1539 1538 1537 1537 1536 1535 1535
1532 1534 1537 1539 1541 1542 1544 1545 1546 1547 1547 1547 1547 1546 1546 1546 1546 1546 1547 1547 1547 1547 1546 1546 1546 1546 1545 1545 1544 1544 1543 1541 1541 1540 1539 1537 1536 1535 1534 1533 1533 1532 1532
1528 1530 1532 1535 1537 1539 1541 1543 1544 1544 1544 1544 1544 1544 1544 1544 1545 1545 1545 1545 1545 1545 1545 1545 1545 1544 1544 1543 1543 1542 1541 1539 1538 1537 1536 1535 1534 1533 1532 1531 1530 1529 1528
1523 1525 1528 1531 1533 1536 1538 1540 1541 1541 1542 1542 1542 1542 1542 1542 1543 1543 1544 1544 1544 1544 1543 1543 1543 1543 1542 1541 1541 1540 1538 1537 1535 1534 1533 1532 1531 1530 1529 1528 1527 1526 1525
1519 1521 1523 1526 1528 1531 1533 1536 1537 1538 1539 1539 1539 1539 1540 1540 1540 1541 1541 1542 1542 1541 1541 1541 1540 1540 1539 1538 1538 1536 1535 1534 1532 1531 1530 1529 1528 1527 1526 1525 1523 1522 1521
1514 1516 1518 1521 1523 1526 1529 1531 1533 1535 1535 1536 1536 1536 1537 1538 1538 1539 1539 1539 1539 1539 1538 1538 1537 1537 1536 1535 1534 1533 1531 1530 1529 1528 1527 1526 1525 1524 1522 1521 1520 1518 1517
1508 1511 1512 1515 1518 1521 1524 1526 1528 1530 1531 1532 1533 1533 1534 1536 1535 1535 1536 1536 1536 1535 1535 1534 1533 1533 1532 1531 1529 1528 1527 1526 1525 1524 1523 1522 1521 1519 1518 1517 1515 1514 1512
1502 1504 1506 1509 1512 1515 1518 1521 1523 1525 1526 1528 1529 1530 1529 1529 1531 1532 1532 1532 1532 1532 1531 1530 1529 1528 1527 1526 1525 1523 1522 1521 1520 1519 1518 1517 1516 1514 1513 1511 1510 1509 1507
1495 1498 1500 1503 1505 1508 1512 1515 1517 1520 1521 1523 1524 1525 1526 1526 1527 1527 1528 1528 1528 1528 1527 1526 1525 1524 1523 1522 1520 1518 1517 1515 1514 1512 1511 1510 1509 1507 1506 1505 1503 1502 1500
1487 1490 1493 1496 1499 1502 1505 1508 1511 1514 1516 1517 1518 1519 1520 1521 1522 1523 1523 1523 1524 1523 1523 1522 1521 1520 1519 1517 1515 1513 1511 1509 1508 1506 1504 1503 1502 1500 1499 1497 1496 1494 1492
1479 1482 1486 1489 1492 1495 1498 1501 1505 1507 1510 1512 1513 1515 1516 1517 1517 1518 1518 1518 1519 1519 1518 1517 1517 1515 1514 1512 1510 1507 1505 1503 1501 1498 1496 1495 1493 1492 1490 1488 1486 1485 1484
1469 1473 1477 1481 1484 1487 1491 1495 1498 1501 1503 1506 1507 1509 1511 1512 1513 1513 1513 1513 1514 1514 1513 1513 1511 1510 1508 1507 1504 1501 1499 1496 1493 1491 1488 1487 1485 1482 1480 1478 1477 1476 1475
1461 1465 1469 1473 1477 1480 1484 1488 1492 1495 1498 1500 1502 1504 1505 1506 1507 1507 1508 1508 1508 1508 1507 1507 1505 1504 1502 1500 1497 1494 1491 1488 1485 1483 1481 1478 1476 1473 1471 1469 1468 1467 1465
1454 1457 1461 1464 1468 1472 1476 1481 1485 1488 1492 1494 1497 1499 1500 1501 1502 1502 1502 1503 1505 1502 1500 1500 1499 1497 1496 1493 1490 1486 1483 1480 1477 1475 1473 1470 1467 1465 1463 1461 1459 1458 1457
1446 1450 1453 1456 1460 1464 1469 1475 1478 1482 1486 1488 1491 1493 1495 1496 1497 1497 1497 1498 1499 1498 1495 1493 1493 1492 1490 1487 1484 1480 1476 1473 1470 1467 1465 1462 1460 1457 1455 1453 1451 1450 1448
1440 1443 1446 1450 1453 1458 1463 1468 1472 1476 1480 1483 1486 1488 1490 1492 1493 1493 1493 1493 1494 1493 1490 1488 1486 1485 1483 1480 1477 1474 1470 1466 1463 1461 1458 1455 1452 1450 1447 1445 1443 1441 1439
1434 1438 1441 1445 1449 1453 1458 1463 1467 1471 1475 1479 1482 1484 1486 1487 1488 1488 1488 1489 1489 1487 1485 1481 1478 1477 1475 1473 1469 1466 1463 1460 1456 1454 1451 1448 1445 1442 1440 1437 1435 1433 1431
1430 1433 1437 1441 1445 1449 1453 1458 1463 1468 1472 1475 1478 1480 1482 1483 1484 1484 1484 1483 1483 1482 1479 1475 1472 1470 1467 1466 1462 1458 1455 1452 1449 1446 1444 1441 1438 1435 1433 1430 1427 1424 1421
1426 1430 1434 1438 1441 1445 1450 1455 1460 1465 1469 1472 1474 1476 1477 1478 1479 1479 1478 1477 1477 1475 1473 1469 1466 1463 1460 1458 1455 1451 1446 1444 1441 1439 1436 1433 1430 1428 1426 1422 1419 1415 1412
1423 1427 1430 1434 1439 1444 1449 1454 1459 1463 1466 1469 1470 1472 1472 1473 1473 1473 1472 1471 1470 1469 1467 1464 1460 1457 1454 1452 1449 1445 1440 1435 1432 1431 1427 1425 1422 1419 1417 1413 1410 1406 1403
1421 1425 1429 1433 1438 1443 1448 1453 1458 1461 1464 1466 1467 1467 1468 1467 1468 1467 1466 1466 1465 1463 1460 1458 1455 1452 1449 1446 1443 1439 1434 1429 1424 1423 1420 1415 1415 1410 1408 1404 1401 1398 1394
1421 1425 1430 1435 1440 1445 1449 1453 1457 1459 1461 1462 1463 1463 1464 1464 1463 1462 1460 1460 1459 1458 1456 1454 1449 1446 1443 1440 1436 1432 1429 1425 1421 1418 1414 1405 1405 1401 1399 1395 1392 1389 1385
1424 1428 1433 1437 1442 1447 1450 1453 1455 1457 1458 1458 1459 1460 1460 1459 1458 1456 1455 1453 1452 1450 1449 1446 1443 1440 1437 1434 1431 1428 1424 1418 1414 1412 1408 1399 1395 1392 1387 1384 1382 1379 1375
1428 1433 1437 1441 1444 1448 1450 1452 1453 1454 1455 1456 1456 1456 1456 1455 1453 1451 1450 1448 1446 1444 1442 1440 1437 1434 1432 1429 1426 1422 1417 1412 1406 1402 1401 1394 1386 1381 1375 1371 1370 1367 1364
1434 1437 1441 1443 1445 1447 1449 1451 1452 1453 1453 1453 1453 1453 1452 1450 1448 1447 1445 1442 1439 1437 1434 1431 1429 1427 1425 1422 1420 1416 1412 1407 1401 1394 1392 1388 1381 1375 1364 1358 1357 1355 1352